Zurück zum Katalog

ARIANE 1 DEB

AktivGTO
NORAD 19857·DEBRIS·🇫🇷 France

Gestartet Jul 2, 1985 von Guiana Space Centre

Loading…

TLE

AlterndSource: Space-Track

Epoche: Sep 14, 2026, 12:55 UTC

1 19857U 85056P   26257.53822405  .00000847  00000-0  16927-1 0  9990
2 19857   7.0544 333.7305 7111172 217.6884 135.6704  2.29698623 99812

Verfolge ARIANE 1 DEB in Echtzeit mit AllMySat

Download on the App Store